Regional Weather Roundup
Issued by NWS Portland, ME

Current Version | Previous Version | Text Only | Print | Product List | Glossary Off
Versions: 1 2 3 4 5 6 7 8 9 10 11 12 13 14 15 16 17 18 19 20 21 22 23 24 25 26 27 28 29 30 31 32 33 34 35 36 37 38 39 40 41 42 43 44 45 46 47 48 49 50
000 ASUS41 KGYX 211306 RWRGYX WEATHER ROUNDUP FOR MAINE AND NEW HAMPSHIRE NATIONAL WEATHER SERVICE GRAY ME 900 AM EDT MON AUG 21 2017 MEZ002-005-006-010-012-015-018-020-021-024-026-027-029-211400- MAINE CITY SKY/WX TMP DP RH WIND PRES REMARKS PORTLAND MOSUNNY 71 60 68 W8 30.13S SANFORD SUNNY 70 62 76 CALM 30.14F BAR HARBOR SUNNY 70 61 73 S7 30.10F WISCASSET MOSUNNY 72 63 73 CALM 30.13F ROCKLAND SUNNY 71 62 73 W9 30.10F FRYEBURG MOSUNNY 69 63 81 E6 30.13F LEWISTONAUBURN MOSUNNY 68 62 81 CALM 30.12F AUGUSTA SUNNY 70 61 73 SW6 30.12S WATERVILLE SUNNY 70 63 78 SW5 30.08F BANGOR MOSUNNY 72 61 68 SW8 30.09F GREENVILLE N/A 69 61 75 VRB3 30.09S MILLINOCKET SUNNY 73 62 68 CALM 30.07F HOULTON SUNNY 71 64 78 S7 30.02S PRESQUE ISLE SUNNY 69 61 75 SW10 30.01F FRENCHVILLE SUNNY 67 59 75 SW6 29.99F CARIBOU SUNNY 71 62 73 W8 30.00S $$ NHZ002-005-008-009-011-012-014-211400- NEW HAMPSHIRE CITY SKY/WX TMP DP RH WIND PRES REMARKS PORTSMOUTH PTSUNNY 71 60 67 W6 30.13F ROCHESTER SUNNY 70 59 68 CALM 30.14F NASHUA SUNNY 71 63 75 CALM 30.17F MANCHESTER PTSUNNY 68 59 73 CALM 30.15F CONCORD SUNNY 69 61 75 CALM 30.16F LACONIA SUNNY 69 60 73 W8 30.16F PLYMOUTH CLOUDY 57 56 97 CALM 30.17S FOG BERLIN MOSUNNY 64 57 78 CALM 30.15F WHITEFIELD MOSUNNY 64 58 80 CALM 30.16F JAFFREY SUNNY 69 62 78 S6 30.20F KEENE N/A N/A N/A N/A MISG N/A LEBANON MOSUNNY 62 59 90 CALM 30.17F MT WASHINGTON FOG 50 50 100 NW33G43 N/A VSB 1/16 $$ VTZ005-007-008-211400- VERMONT CITY SKY/WX TMP DP RH WIND PRES REMARKS ST JOHNSBURY N/A 61 59 93 MISG 30.15S MONTPELIER MOSUNNY 62 60 93 CALM 30.19S BURLINGTON PTSUNNY 71 61 70 S12G21 30.12F $$ MAZ007-012-024-CTZ003-RIZ002-NYZ038-NYZ072-211400- SOUTHERN NEW ENGLAND AND NY CITY SKY/WX TMP DP RH WIND PRES REMARKS BOSTON MOSUNNY 76 60 57 NW6 30.16F WORCESTER SUNNY 73 58 59 W10 30.20S NANTUCKET SUNNY 74 66 76 W9 30.17F PROVIDENCE PTSUNNY 76 63 64 CALM 30.18S HARTFORD PTSUNNY 69 61 75 CALM 30.18F ALBANY MOSUNNY 68 61 78 S10 30.18S NEW YORK CITY MOSUNNY 80 62 54 W8 30.19S $$ ANZ081-ANZ082-ANZ150-NHZ014-MEZ023>029-211400- COASTAL MARINE OBSERVATIONS STATION/POSITION TIME TEMP WIND PRES WAVE AIR SEA DIR/SP/G HT/PER (UTC) (F) (DEG/KT/KT) (MB) (FT/S) MOUNT DESERT ROC 1300 60 1019.5F MATINICUS ROCK 1200 63 280/ 12/ 12 1019.6R ISLE OF SHOALS 1200 64 260/ 9/ 9 1020.7R JEFFREYS LEDGE 1236 65 N/A 2/ 6 CASHES LEDGE BUO 1150 72 69 1020.3 2/ 6 GEORGES BANK BUO 1150 66 64 1020.4 3/ 6 $$ .............KEY.............. WCI - WIND CHILL TC - TEMPERATURE IN CELSIUS VSB - VISIBILITY IN MILES HX - HEAT INDEX FAIR- INDICATES FEW OR NO CLOUDS BELOW 12,000 FT, WITH NO SIGNIFICANT WEATHER AND/OR OBSTRUCTIONS TO VISIBILITY.

USA.gov is the U.S. government's official web portal to all federal, state and local government web resources and services.